Terug naar catalogus

STARLINK-5259

ActiefCommunicatieVLEO
NORAD 54209·PAYLOAD·🇺🇸 United States

Gelanceerd Oct 28, 2022 vanaf Vandenberg Space Force Base

Loading…

Volgende Passages (komende 24 uur)

TLE

VersSource: CelesTrak SupGP

Epoch: Sep 15, 2026, 02:20 UTC

1 54209C 22141BE  26258.09770833 -.00020127  00000+0 -57596-3 0  2586
2 54209  53.1587 205.4421 0001386  85.8461 241.7079 15.35402742    13

Volg STARLINK-5259 in realtime met AllMySat

Download on the App Store